Stations météo

Publicité
Romorantin, France (7247): Température de l'air & dewpoint: 26.03.2020 10:00:00 - 01.04.2020 10:00:00 (CEST)Romorantin, France (7247): Température de l'air 5cm: 26.03.2020 10:00:00 - 01.04.2020 10:00:00 (CEST)Romorantin, France (7247): Température de l'air -20cm & Température de l'air -100cm: 26.03.2020 10:00:00 - 01.04.2020 10:00:00 (CEST)Romorantin, France (7247): Vitesse du vent & gusts: 26.03.2020 10:00:00 - 01.04.2020 10:00:00 (CEST)Romorantin, France (7247): Direction du vent: 26.03.2020 10:00:00 - 01.04.2020 10:00:00 (CEST)Romorantin, France (7247): reduced air pressure: 26.03.2020 10:00:00 - 01.04.2020 10:00:00 (CEST)Romorantin, France (7247): visibility: 26.03.2020 10:00:00 - 01.04.2020 10:00:00 (CEST)Romorantin, France (7247): Quantités de précipitations: 26.03.2020 10:00:00 - 01.04.2020 10:00:00 (CEST)
Date & Time tt [°C] td [°C] tt 5cm [°C] tt -20cm [°C] tt -100cm [°C] ff [km/h] ff [knt] fx [km/h] fx [knt] dd ppp [hPa] vv [km] rr [mm]
01.04.2020 10:00:00 - - - - - - - - - - - - -
01.04.2020 09:00:00 3,2 -3,0 -4,2 8,8 10,3 12 6 18 10 NE 1021,0 20 0,0
01.04.2020 08:00:00 -1,0 -5,1 -5,1 8,9 10,3 4 2 10 5 NE 1021,1 20 0,0
01.04.2020 07:00:00 0,2 -4,1 -4,4 9,0 10,3 4 2 14 7 NE 1020,9 20 0,0
01.04.2020 06:00:00 2,0 -3,9 -2,9 9,0 10,3 8 4 14 8 NNE 1020,9 20 0,0
01.04.2020 05:00:00 2,6 -4,0 -2,4 9,1 10,3 7 4 19 11 NE 1020,6 20 0,0
01.04.2020 04:00:00 3,5 -3,8 -1,2 9,2 10,3 11 6 18 10 NE 1020,9 20 0,0
01.04.2020 03:00:00 4,1 -3,4 -0,7 9,2 10,3 9 5 19 10 ENE 1021,5 20 0,0
01.04.2020 02:00:00 5,4 -2,9 1,8 9,3 10,3 11 6 26 14 NE 1021,7 20 0,0
01.04.2020 01:00:00 6,0 -2,4 2,3 9,3 10,3 11 6 22 12 NE 1021,9 20 0,0
01.04.2020 00:00:00 6,8 -2,1 3,1 9,4 10,3 9 5 21 11 NE 1022,2 20 0,0
31.03.2020 23:00:00 7,8 -2,3 3,9 9,4 10,3 11 6 24 13 NE 1022,3 20 0,0
31.03.2020 22:00:00 8,6 -2,1 4,6 9,4 10,3 14 8 27 15 NE 1022,1 20 0,0
31.03.2020 21:00:00 9,9 -2,1 5,4 9,3 10,3 14 8 34 19 NE 1021,7 20 0,0
31.03.2020 20:00:00 11,3 -3,6 8,6 9,3 10,3 23 12 41 22 ENE 1021,4 20 0,0
31.03.2020 19:00:00 12,5 -3,0 11,6 9,2 10,4 26 14 45 24 ENE 1021,2 20 0,0
31.03.2020 18:00:00 13,3 -3,1 14,3 9,1 10,3 26 14 50 27 ENE 1021,1 20 0,0
31.03.2020 17:00:00 13,4 -3,4 17,3 8,9 10,3 27 15 48 26 ENE 1021,5 20 0,0
31.03.2020 16:00:00 13,4 -3,0 20,6 8,8 10,3 28 15 51 28 ENE 1021,7 20 0,0
31.03.2020 15:00:00 13,3 -3,5 21,8 8,7 10,3 23 12 53 28 ENE 1022,6 20 0,0
31.03.2020 14:00:00 12,5 -4,2 21,6 8,6 10,3 27 15 52 28 NE 1023,0 20 0,0
31.03.2020 13:00:00 11,5 -4,7 18,5 8,5 10,3 31 17 53 29 ENE 1023,4 20 0,0
31.03.2020 12:00:00 10,1 -4,7 15,2 8,5 10,3 34 19 57 31 ENE 1024,0 20 0,0
31.03.2020 11:00:00 8,5 -5,0 9,6 8,5 10,3 31 17 54 29 ENE 1024,4 20 0,0
31.03.2020 10:00:00 6,7 -4,4 5,2 8,5 10,4 18 10 36 19 ENE 1024,4 20 0,0
31.03.2020 09:00:00 3,1 -3,9 -4,9 8,6 10,3 10 5 19 10 NE 1024,6 20 0,0
31.03.2020 08:00:00 -1,3 -5,5 -5,3 8,7 10,4 0 0 13 7 N 1024,6 20 0,0
31.03.2020 07:00:00 0,3 -5,3 -4,4 8,8 10,4 7 4 17 9 ENE 1024,1 20 0,0
31.03.2020 06:00:00 1,3 -5,6 -2,7 8,8 10,4 6 4 27 15 ENE 1023,5 20 0,0
31.03.2020 05:00:00 2,5 -5,2 -0,7 8,9 10,4 12 7 31 17 NE 1023,1 20 0,0
31.03.2020 04:00:00 2,7 -5,5 -0,6 8,9 10,4 11 6 23 12 NE 1023,4 20 0,0
31.03.2020 03:00:00 3,4 -5,5 0,3 9,0 10,4 11 6 26 14 NE 1023,5 20 0,0
31.03.2020 02:00:00 3,9 -7,6 0,5 9,1 10,4 14 7 34 18 NE 1023,7 20 0,0
31.03.2020 01:00:00 4,4 -8,7 0,9 9,1 10,4 12 6 27 14 NNE 1023,7 20 0,0
31.03.2020 00:00:00 5,5 -9,9 1,9 9,1 10,4 13 7 37 20 NE 1023,8 20 0,0
30.03.2020 23:00:00 6,1 -10,2 2,6 9,2 10,4 18 10 36 19 NE 1023,4 20 0,0
30.03.2020 22:00:00 6,3 -10,5 3,2 9,2 10,4 16 8 35 19 NE 1023,2 20 0,0
30.03.2020 21:00:00 7,1 -10,2 3,8 9,2 10,4 17 9 41 22 NE 1022,8 20 0,0
30.03.2020 20:00:00 8,1 -9,8 5,4 9,2 10,4 16 9 48 26 NE 1022,2 20 0,0
30.03.2020 19:00:00 9,4 -9,2 8,2 9,1 10,4 24 13 51 28 NE 1021,9 20 0,0
30.03.2020 18:00:00 9,5 -9,1 10,2 9,0 10,4 30 16 61 33 NE 1021,9 20 0,0
30.03.2020 17:00:00 9,8 -8,3 13,3 9,0 10,4 32 17 56 30 NE 1022,2 20 0,0
30.03.2020 16:00:00 9,4 -7,8 15,1 8,9 10,4 28 15 53 29 NE 1022,8 20 0,0
30.03.2020 15:00:00 8,8 -6,6 17,7 8,8 10,4 26 14 51 27 NNE 1023,5 20 0,0
30.03.2020 14:00:00 9,2 -5,9 19,3 8,8 10,4 32 17 59 32 ENE 1023,9 20 0,0
30.03.2020 13:00:00 7,6 -6,2 16,2 8,7 10,4 26 14 57 31 NE 1024,3 20 0,0
30.03.2020 12:00:00 5,9 -5,4 13,0 8,8 10,4 27 15 56 31 NNE 1025,1 20 0,0
30.03.2020 11:00:00 4,9 -4,4 6,3 8,8 10,4 29 15 58 32 NE 1025,5 20 0,0
30.03.2020 10:00:00 3,5 -5,2 3,3 8,9 10,4 27 14 55 30 NE 1025,7 20 0,0
30.03.2020 09:00:00 2,1 -5,8 0,7 8,9 10,4 24 13 55 30 NNE 1025,4 20 0,0
30.03.2020 08:00:00 1,6 -5,6 0,3 9,0 10,4 25 13 52 28 NNE 1025,3 20 0,0
30.03.2020 07:00:00 2,8 -4,4 2,0 9,0 10,4 22 12 50 27 NNE 1025,1 20 0,0
30.03.2020 06:00:00 3,5 -3,5 2,8 9,1 10,4 21 11 50 27 NNE 1025,0 20 0,0
30.03.2020 05:00:00 3,8 -2,8 3,0 9,1 10,4 23 13 49 26 NE 1025,0 20 0,0
30.03.2020 04:00:00 3,9 -1,7 3,2 9,2 10,4 19 11 48 26 NNE 1025,4 20 0,0
30.03.2020 03:00:00 4,3 -1,7 3,8 9,2 10,4 27 15 51 28 NNE 1025,9 20 0,0
30.03.2020 02:00:00 4,3 -2,1 3,4 9,3 10,4 21 11 45 24 NE 1026,5 20 0,0
30.03.2020 01:00:00 4,4 -2,7 3,3 9,4 10,4 16 9 49 27 NNE 1026,7 20 0,0
30.03.2020 00:00:00 4,9 -3,4 3,8 9,4 10,4 24 13 56 30 NE 1027,1 20 0,0
29.03.2020 23:00:00 5,1 -3,0 3,9 9,5 10,4 19 10 45 25 NNE 1026,9 20 0,0
29.03.2020 22:00:00 5,2 -2,2 4,4 9,5 10,4 19 11 44 24 NNE 1027,1 20 0,0
29.03.2020 21:00:00 6,1 -4,4 4,8 9,5 10,4 17 9 43 23 NNE 1026,6 20 0,0
29.03.2020 20:00:00 7,2 -6,2 6,0 9,5 10,4 22 12 51 28 NE 1025,9 20 0,0
29.03.2020 19:00:00 7,9 -7,4 7,4 9,5 10,4 21 11 54 29 NNE 1025,5 20 0,0
29.03.2020 18:00:00 9,4 -6,1 7,5 9,5 10,4 18 10 50 27 NE 1024,9 20 0,0
29.03.2020 17:00:00 8,7 -5,6 8,8 9,5 10,4 21 11 53 28 NNE 1025,2 20 0,0
29.03.2020 16:00:00 8,5 -4,4 9,2 9,5 10,4 19 11 46 25 N 1025,6 20 0,0
29.03.2020 15:00:00 9,1 -2,5 9,1 9,5 10,4 23 12 50 27 NNE 1025,7 20 0,0
29.03.2020 14:00:00 7,9 -2,7 8,9 9,5 10,4 20 11 46 25 NNE 1026,2 20 0,0
29.03.2020 13:00:00 7,6 -3,3 9,6 9,5 10,4 23 12 53 29 NNE 1026,1 20 0,0
29.03.2020 12:00:00 8,1 -1,7 8,6 9,5 10,4 27 15 53 28 NE 1026,0 19 0,0
29.03.2020 11:00:00 6,2 -3,2 5,8 9,6 10,4 23 12 49 27 NNE 1026,2 20 0,0
29.03.2020 10:00:00 5,6 -2,5 5,2 9,6 10,4 26 14 46 25 NE 1025,7 20 0,0
29.03.2020 09:00:00 5,6 -1,1 4,8 9,7 10,4 24 13 53 29 NNE 1025,1 20 0,0
29.03.2020 08:00:00 6,0 -1,2 5,2 9,7 10,4 29 16 58 31 NE 1024,3 20 0,0
29.03.2020 07:00:00 6,5 1,4 5,9 9,8 10,4 17 9 41 22 NNE 1023,5 20 0,0
29.03.2020 06:00:00 6,7 2,4 5,9 9,8 10,4 16 9 43 23 NNE 1023,1 20 0,0
29.03.2020 05:00:00 6,6 2,7 5,9 9,9 10,4 16 9 46 25 NNE 1022,9 20 0,0
29.03.2020 04:00:00 7,3 3,0 6,4 9,9 10,4 19 10 39 21 NNE 1022,7 20 0,0
29.03.2020 03:00:00 8,2 3,2 6,9 9,9 10,4 12 7 38 20 N 1022,4 20 0,0
29.03.2020 02:00:00 9,3 2,8 7,5 9,9 10,4 17 9 40 21 N 1022,0 18 0,0
29.03.2020 01:00:00 11,2 2,5 8,6 10,0 10,4 19 10 36 20 NNE 1021,2 16 0,0
29.03.2020 00:00:00 12,2 4,2 6,7 10,0 10,4 14 7 26 14 NNE 1020,7 12 0,0
28.03.2020 23:00:00 11,8 5,4 2,7 10,0 10,4 10 5 26 14 NNE 1020,1 11 0,0
28.03.2020 22:00:00 7,2 3,8 3,4 10,0 10,4 0 0 5 3 N 1020,0 16 0,0
28.03.2020 21:00:00 12,9 3,8 7,3 10,0 10,4 4 2 14 7 NW 1019,1 17 0,0
28.03.2020 20:00:00 15,4 3,5 11,9 9,9 10,4 8 4 20 11 NNW 1018,6 20 0,0
28.03.2020 19:00:00 16,7 3,4 15,0 9,8 10,4 10 5 23 12 N 1018,1 18 0,0
28.03.2020 18:00:00 17,6 3,8 17,9 9,6 10,4 13 7 23 13 NNW 1017,9 15 0,0
28.03.2020 17:00:00 18,0 3,8 22,4 9,4 10,4 8 4 20 11 NNE 1017,9 19 0,0
28.03.2020 16:00:00 17,2 3,1 24,2 9,2 10,4 11 6 19 10 N 1018,3 18 0,0
28.03.2020 15:00:00 16,9 3,6 27,4 9,0 10,4 5 3 18 10 NNW 1018,6 19 0,0
28.03.2020 14:00:00 15,7 3,1 26,7 8,9 10,4 9 5 18 10 E 1019,1 18 0,0
28.03.2020 13:00:00 14,5 2,1 25,9 8,8 10,4 9 5 21 11 NNE 1019,5 17 0,0
28.03.2020 12:00:00 13,4 3,7 20,4 8,8 10,4 5 3 10 5 NW 1019,7 12 0,0
28.03.2020 11:00:00 10,6 3,8 11,2 8,8 10,4 2 1 10 5 WNW 1020,0 9 0,0
28.03.2020 10:00:00 7,0 3,1 2,8 8,8 10,4 0 0 4 2 N 1020,2 9 0,0
28.03.2020 09:00:00 0,7 0,4 -3,1 8,9 10,4 0 0 0 0 N 1020,1 5 0,0
28.03.2020 08:00:00 -1,5 -1,6 -3,5 8,9 10,4 0 0 2 1 N 1019,9 3,7 0,0
28.03.2020 07:00:00 -1,8 -1,9 -3,5 9,0 10,4 0 0 3 2 N 1019,4 5 0,0
28.03.2020 06:00:00 -1,6 -1,9 -3,4 9,1 10,4 0 0 2 1 N 1019,2 3,9 0,0
28.03.2020 05:00:00 -0,8 -1,1 -3,0 9,2 10,4 0 0 2 1 N 1018,9 5 0,0
28.03.2020 04:00:00 -1,2 -1,6 -2,8 9,3 10,4 0 0 0 0 N 1018,9 7 0,0
28.03.2020 03:00:00 -0,8 -1,5 -2,9 9,4 10,4 0 0 0 0 N 1018,8 9 0,0
28.03.2020 02:00:00 -0,2 -1,2 -2,7 9,5 10,4 0 0 0 0 N 1018,7 9 0,0
28.03.2020 01:00:00 0,4 -0,7 -2,5 9,6 10,4 0 0 3 1 N 1018,8 11 0,0
28.03.2020 00:00:00 0,9 -1,0 -2,1 9,6 10,4 0 0 4 2 N 1018,8 17 0,0
27.03.2020 23:00:00 2,8 0,2 -0,9 9,7 10,4 0 0 0 0 N 1018,4 19 0,0
27.03.2020 22:00:00 4,5 -0,1 0,3 9,7 10,5 0 0 6 4 N 1018,0 20 0,0
27.03.2020 21:00:00 10,1 -0,4 3,6 9,6 10,4 3 1 17 9 N 1017,4 20 0,0
27.03.2020 20:00:00 12,4 -0,5 9,2 9,6 10,4 8 4 18 10 NNW 1016,7 20 0,0
27.03.2020 19:00:00 13,8 -0,7 12,5 9,5 10,5 11 6 23 12 NNW 1016,2 20 0,0
27.03.2020 18:00:00 14,5 0,0 15,2 9,4 10,5 11 6 23 13 N 1015,6 19 0,0
27.03.2020 17:00:00 14,8 -0,5 18,8 9,2 10,5 11 6 34 18 N 1015,7 20 0,0
27.03.2020 16:00:00 14,5 -0,8 22,2 9,0 10,4 12 6 31 17 NE 1016,0 20 0,0
27.03.2020 15:00:00 13,5 -1,3 24,0 8,9 10,4 8 5 28 15 N 1016,4 20 0,0
27.03.2020 14:00:00 12,9 -1,1 23,5 8,8 10,5 10 5 24 13 NE 1016,9 20 0,0
27.03.2020 13:00:00 11,9 -1,3 23,0 8,8 10,5 11 6 30 16 N 1017,5 20 0,0
27.03.2020 12:00:00 10,9 -1,9 18,6 8,7 10,5 10 5 22 12 NNE 1017,8 20 0,0
27.03.2020 11:00:00 8,6 -1,8 9,6 8,7 10,5 6 4 16 9 N 1018,2 20 0,0
27.03.2020 10:00:00 6,4 -2,2 1,0 8,8 10,5 6 3 13 7 NE 1018,2 19 0,0
27.03.2020 09:00:00 1,2 -2,0 -5,4 8,9 10,5 3 1 6 3 NNW 1018,2 16 0,0
27.03.2020 08:00:00 -3,4 -4,7 -5,7 9,0 10,5 0 0 3 2 N 1018,1 11 0,0
27.03.2020 07:00:00 -1,9 -3,2 -4,9 9,0 10,5 0 0 3 2 N 1017,9 19 0,0
27.03.2020 06:00:00 -1,0 -4,0 -3,9 9,1 10,5 0 0 7 4 N 1017,4 19 0,0
27.03.2020 05:00:00 0,9 -3,4 -2,4 9,2 10,5 3 2 10 5 NNE 1017,2 20 0,0
27.03.2020 04:00:00 3,3 -3,5 -1,5 9,2 10,5 4 2 9 5 NNE 1017,2 20 0,0
27.03.2020 03:00:00 4,3 -3,0 -0,2 9,3 10,5 4 2 10 5 NNE 1017,0 20 0,0
27.03.2020 02:00:00 1,8 -1,6 -1,3 9,4 10,5 2 1 7 4 NNE 1017,2 20 0,0
27.03.2020 01:00:00 0,9 -1,7 -1,3 9,4 10,5 0 0 6 3 N 1017,5 20 0,0
27.03.2020 00:00:00 2,9 -2,6 -0,1 9,5 10,5 0 0 11 6 N 1017,4 20 0,0
26.03.2020 23:00:00 5,4 -2,9 0,0 9,5 10,5 4 2 11 6 NNE 1017,4 20 0,0
26.03.2020 22:00:00 6,5 -2,9 0,6 9,5 10,5 5 3 14 8 NNE 1017,2 20 0,0
26.03.2020 21:00:00 8,1 -3,1 4,0 9,5 10,5 6 4 24 13 NE 1016,8 20 0,0
26.03.2020 20:00:00 9,6 -3,0 6,4 9,4 10,5 11 6 25 13 NE 1015,8 20 0,0
26.03.2020 19:00:00 11,0 -3,5 9,8 9,4 10,5 11 6 34 18 NE 1015,3 20 0,0
26.03.2020 18:00:00 11,6 -3,0 12,6 9,3 10,5 16 9 34 18 ENE 1014,8 20 0,0
26.03.2020 17:00:00 11,7 -3,3 15,4 9,2 10,5 17 9 32 17 NE 1014,8 20 0,0
26.03.2020 16:00:00 11,5 -3,5 18,0 9,1 10,5 16 9 34 18 ENE 1014,7 20 0,0
26.03.2020 15:00:00 11,0 -3,5 18,6 9,0 10,5 20 11 41 22 ENE 1014,9 20 0,0
26.03.2020 14:00:00 9,9 -4,5 19,9 9,0 10,5 16 9 34 18 NE 1014,8 20 0,0
26.03.2020 13:00:00 8,9 -5,4 19,1 8,9 10,5 16 9 36 19 NE 1015,1 20 0,0
26.03.2020 12:00:00 7,7 -4,7 14,6 8,9 10,6 17 9 33 18 ENE 1015,6 20 0,0
26.03.2020 11:00:00 6,5 -5,8 7,7 9,0 10,5 18 10 34 18 NE 1015,6 20 0,0
26.03.2020 10:00:00 - - - - - - - - - - - - -

tt = Température de l'air
td = dewpoint
tt 5cm = Température de l'air 5cm
tt -20cm = Température de l'air -20cm
tt -100cm = Température de l'air -100cm
ff = Vitesse du vent
fx = gusts
dd = Direction du vent
ppp = reduced air pressure
vv = visibility
rr = Quantités de précipitations

stations d'obs. à proximité